格洛纳斯M-723 COSMOS 2436 [GLONASS-M]

导读 | 星芒AI

COSMOS 2436(GLONASS-M)是俄罗斯GLONASS卫星导航系统的一部分,于2009年发射。该卫星属于GLONASS-M系列,设计用于提供高精度的全球定位和导航服务。它运行在中地球轨道,与GLONASS星座中的其他卫星协同工作,增强系统的覆盖范围和可靠性。COSMOS 2436采用改进型技术,具备更长的使用寿命和更高的信号稳定性,是俄罗斯全球导航能力的重要组成部分。

基本信息
目录编号:
32395
目录名称:
COSMOS 2436 (GLONASS)
国际标识:
2007-065C
轨道中心:
EARTH
卫星名称:
格洛纳斯M-723
卫星全名:
格洛纳斯M-723 COSMOS 2436 [GLONASS-M]
卫星状态:
在轨 (已飞行6563 天)
发射日期:
2007-12-25 UTC
国别 :
俄罗斯(独联体) (CIS)
星等 :
--
轨道信息
数据来源 国际轨道数据 AOE轨道数据
星历时间 2025-12-08T10:01:12+0800
5天前
查看轨道信息
2025-12-09T21:00:00+0800
3天前
查看轨道信息
半长轴 25508.185km 25508.216km
偏心率 0.0017747 0.0017727
轨道倾角 64.324° 64.324°
近地点辐角 9.226° 9.400°
升交点赤经 198.431° 198.382°
平近点角 134.613° 172.575°
近地点 19084.78km 19084.862km
远地点 19175.32km 19175.3km
周期 675.739分钟 675.740分钟
每日圈数 2.131 2.130996
详细信息
平衡模式:
三轴稳定
覆盖范围:
全球
运营商:
列舍特涅夫卫星信息系统
运营商所在国:
俄罗斯
制造商(研发单位):
列舍特涅夫卫星信息系统
制造商所在国:
俄罗斯
使用方式:
暂无
卫星简介
格洛纳斯(GLONASS )是苏联/俄罗斯研制卫星导航系统。标准配置为24颗卫星,其中18颗卫星就能保证该系统为俄罗斯境内用户提供全部服务。该卫星仍在工作。
2D轨道图
3D轨道图
轨道高度分析图
轨道倾角分析图
轨道综合分析图
查看轨道综合分析图